Location: Cheyres
(46.8153°N, 6.7877°E)
Time: 04:30:25
(UTC+00:00)

ISS - Visible Passes

Search period start: 04 March 2024 00:00
Search period end: 14 March 2024 00:00
Orbit: 414 x 422 km, 51.6° (Epoch: 04 March)

Date Brightness Start Highest point End Pass type
(mag) Time Alt. Az. Time Alt. Az. Time Alt. Az.
04 Mar -1.7 03:36:46 29° ENE 03:36:46 29° ENE 03:38:44 10° E visible
04 Mar -3.5 05:09:42 15° WNW 05:12:19 51° SSW 05:15:36 10° SE visible
05 Mar -3.9 04:23:46 58° W 04:24:19 78° SSW 04:27:42 10° ESE visible
06 Mar -1.8 03:37:54 28° ESE 03:37:54 28° ESE 03:39:39 10° ESE visible
06 Mar -2.3 05:10:51 14° W 05:12:47 22° SW 05:15:28 10° SSE visible
07 Mar -2.9 04:25:07 33° SSW 04:25:07 33° SSW 04:27:55 10° SSE visible
08 Mar -1.1 03:39:30 14° SE 03:39:30 14° SE 03:40:06 10° SE visible
13 Mar -1.9 19:30:10 10° SSW 19:31:33 21° SSW 19:31:33 21° SSW visible
